Flag Weather past 2 weeks in Turku, Finland

Now
30 °F

Clear.


Feels Like: 24 °F
Forecast: 27 / 31 °F
Wind: 6 mph from East

Location: Turku Airport

Current Time: Nov 21, 2014 at 4:43:10 AM

Latest Report: Nov 21, 2014 at 4:20 AM


Visibility: 10 mi

Pressure: 30.42 "Hg

Humidity: 93%

Dew point: 28 °F

Location of TurkuLocation

Historic Weather in Turku — Graph

°F

Turku temperature yesterday

Maximum temperature yesterday: 34 °F (at 1:20 PM)
Minimum temperature yesterday: 25 °F (at 4:20 AM)
Average temperature yesterday: 31 °F

Past Weeks' High & Low Weather Summary

 TemperatureHumidityPressure
High48 °F (Nov 9, 11:50 AM)100% (Nov 6, 2:20 PM)30.57 "Hg (Nov 6, 2:20 PM)
Low25 °F (Nov 17, 7:20 AM)75% (Nov 19, 12:50 PM)29.77 "Hg (Nov 7, 2:50 AM)
Average36 °F93%30.21 "Hg
* Reported Nov 6 3:20 AM — Nov 21 3:20 AM, Turku, Weather by CustomWeather, © 2014

Note: Actual official high and low records may vary slightly from our data, if they occured in-between our weather recording intervals... More about our weather records

Advertising

Turku weather history for previous 24 hours

 ConditionsComfort  
Time TempWeatherWind HumidityBarometerVisibility
3:20 AM
Nov 21
32 °FOvercast.6 mph87%30.45 "HgN/A
2:50 AM32 °FPartly cloudy.6 mph87%30.45 "HgN/A
2:20 AM32 °FMostly cloudy.5 mph87%30.45 "HgN/A
1:50 AM32 °FOvercast.7 mph87%30.45 "HgN/A
1:20 AM32 °FPassing clouds.6 mph93%30.48 "HgN/A
12:50 AM32 °FMostly cloudy.6 mph93%30.48 "HgN/A
12:20 AM32 °FMostly cloudy.6 mph93%30.48 "HgN/A
11:50 PM
Nov 20
32 °FMostly cloudy.6 mph93%30.48 "HgN/A
11:20 PM32 °FOvercast.6 mph93%30.48 "HgN/A
10:50 PM32 °FOvercast.6 mph93%30.48 "HgN/A
10:20 PM32 °FOvercast.6 mph93%30.48 "HgN/A
9:50 PM32 °FMostly cloudy.6 mph93%30.51 "HgN/A
9:20 PM32 °FMostly cloudy.7 mph93%30.51 "HgN/A
8:50 PM32 °FOvercast.5 mph93%30.51 "HgN/A
8:20 PM32 °FOvercast.3 mph93%30.51 "HgN/A
7:50 PM32 °FOvercast.6 mph93%30.51 "HgN/A
7:20 PM32 °FOvercast.6 mph93%30.51 "HgN/A
6:50 PM32 °FOvercast.7 mph93%30.51 "HgN/A
6:20 PM32 °FOvercast.6 mph93%30.51 "HgN/A
5:50 PM32 °FOvercast.7 mph93%30.51 "HgN/A
5:20 PM32 °FOvercast.6 mph93%30.51 "HgN/A
4:50 PM34 °FOvercast.6 mph87%30.54 "HgN/A
4:20 PM32 °FOvercast.6 mph93%30.54 "HgN/A
3:50 PM32 °FOvercast.7 mph93%30.54 "HgN/A
3:20 PM32 °FOvercast.8 mph93%30.54 "HgN/A
2:50 PM34 °FOvercast.7 mph87%30.54 "HgN/A
2:20 PM34 °FOvercast.6 mph87%30.54 "HgN/A
1:50 PM34 °FOvercast.5 mph87%30.54 "HgN/A
1:20 PM34 °FLow clouds.6 mph87%30.54 "HgN/A
12:50 PM32 °FLow clouds.6 mph93%30.57 "HgN/A
12:20 PM32 °FLow clouds.6 mph93%30.57 "HgN/A
11:50 AM32 °FLow clouds.6 mph93%30.57 "Hg5 mi
11:20 AM32 °FLow clouds.7 mph93%30.57 "Hg5 mi
10:50 AM32 °FLow clouds.6 mph93%30.54 "Hg5 mi
10:20 AM32 °FLow clouds.7 mph93%30.54 "Hg6 mi
9:50 AM32 °FLow clouds.7 mph93%30.54 "HgN/A
9:20 AM30 °FLow clouds.7 mph100%30.54 "HgN/A
8:50 AM30 °FLow clouds.7 mph93%30.54 "HgN/A
8:20 AM30 °FOvercast.7 mph93%30.54 "HgN/A
7:50 AM30 °FOvercast.7 mph93%30.54 "HgN/A
7:20 AM30 °FOvercast.8 mph93%30.54 "HgN/A
6:50 AM30 °FLow clouds.8 mph93%30.54 "HgN/A
6:20 AM30 °FLow clouds.10 mph93%30.54 "HgN/A
5:50 AM28 °FLow clouds.12 mph100%30.54 "HgN/A
5:20 AM28 °FPassing clouds.9 mph93%30.54 "HgN/A
4:50 AM25 °FClear.8 mph93%30.54 "Hg10 mi
4:20 AM25 °FClear.7 mph100%30.54 "Hg10 mi
Weather by CustomWeather, © 2014

See weather overviewHow to use our weather pages